Terug naar catalogus

STARLINK-35213

ActiefCommunicatieVLEO
NORAD 65638·PAYLOAD·🇺🇸 United States

Gelanceerd Sep 18, 2025 vanaf Cape Canaveral Space Force Station

Loading…

Volgende Passages (komende 24 uur)

TLE

VersSource: CelesTrak SupGP

Epoch: Sep 15, 2026, 02:35 UTC

1 65638C 25210S   26258.10812500  .00019084  00000+0  56390-3 0  2583
2 65638  53.1566 142.9332 0001305  92.8624 238.4534 15.34378028    11

Volg STARLINK-35213 in realtime met AllMySat

Download on the App Store